Regional Weather Roundup
Issued by NWS

Home | Current Version | Previous Version | Graphics & Text | Print | Product List | Glossary On
Versions: 1 2 3 4 5 6 7 8 9 10 11 12 13 14 15 16 17 18 19 20 21 22 23 24 25 26 27 28 29 30 31 32 33 34 35 36 37 38 39 40 41 42 43 44 45 46 47 48 49 50
000
ASUS45 KTFX 170004
RWRMT
MONTANA HOURLY WEATHER ROUNDUP
NATIONAL WEATHER SERVICE GREAT FALLS MT
604 PM MDT WED APR 16 2014

NOTE: "FAIR" INDICATES FEW OR NO CLOUDS BELOW 12000 FEET WITH NO
SIGNIFICANT WEATHER AND/OR OBSTRUCTIONS TO VISIBILITY.

* THESE STATIONS ARE NOT UNDER NWS QUALITY CONTROL. THEY DO NOT
   REPORT WEATHER SUCH AS PRECIPITATION OR FOG.

MTZ001>007-043-170100-
WEST OF THE DIVIDE
CITY           SKY/WX    TMP DP  RH WIND       PRES   REMARKS
KALISPELL      CLOUDY    46  34  63 SE13G18   29.96R
MISSOULA       CLOUDY    48  30  50 SE7       30.00F
BUTTE          CLOUDY    45  18  34 NW12      29.96S
MULLAN PASS    FOG       30  28  92 SW5       29.96S WCI  25
* ESSEX        N/A       42  30  63 S6G13      N/A
* LINCOLN      N/A       43  29  58 W4G11      N/A
* LOOKOUT PASS N/A       39  32  76 SE2G9      N/A
* PLAINS APT   CLOUDY    50  34  54 W5        30.00S
* POLSON       N/A       40  35  82 SW1G7      N/A
* SEELEY LAKE  N/A       45  28  51 NW5G11     N/A
* THOMP F APT  CLOUDY    46   8  21 SW10G16    N/A
$$

MTZ008-052>055-170100-
SOUTHWEST MONTANA
CITY           SKY/WX    TMP DP  RH WIND       PRES   REMARKS
BOZEMAN        MOCLDY    48  21  34 NW10      29.96R
DILLON         CLOUDY    50  12  22 W18       29.94S
W YELLOWSTONE  N/A       43  17  35 SW5G16     N/A
* THREE FORKS  MOCLDY    52  21  30 VRB7       N/A
* BOULDER HILL N/A       41  17  38 N4         N/A
* MONIDA PASS  N/A       42  10  27 W8G16      N/A
* RAYNOLDS PAS N/A       40  26  57 S11        N/A   WCI  33
* WHITEHALL    N/A       51  16  25 SW5G14     N/A
* WISE RIVER   N/A       46  16  30 NW15G23    N/A
$$

MTZ009>010-012-014-046-048-049-054-170100-
EAST SLOPES AND CENTRAL MONTANA
CITY           SKY/WX    TMP DP  RH WIND       PRES   REMARKS
CUT BANK       CLOUDY    36  30  79 CALM      29.96F
GREAT FALLS    PTCLDY    41  36  82 E8        29.97S
HELENA         MOCLDY    48  23  37 W13       29.95R
MALMSTROM AFB  PTCLDY    43  36  76 E9        29.95F
* CONRAD       PTCLDY    43  34  71 NE6        N/A
* DEARBORN     N/A       46  32  58 N9         N/A
* EAST GLACIER N/A       30  28  92 S4         N/A
* MONARCH      N/A       36  23  59 SW2        N/A
* PENDROY      N/A       42  29  60 SE8        N/A
* ROGERS PASS  N/A       40  22  49 SE8G17     N/A   WCI  35
* SAINT MARY   N/A       44  34  68 S6G13      N/A
* SWEET GRASS  N/A       35  35 100 S4         N/A
$$

MTZ011-013-016-021-035-040-045-047-050-051-170100-
NORTH CENTRAL MONTANA
CITY           SKY/WX    TMP DP  RH WIND       PRES   REMARKS
HAVRE          CLOUDY    45  28  51 E14       30.02F
LEWISTOWN      N/A       36  34  92 SE8       30.00R WCI  30
* DENTON       N/A       40  32  73 SW9        N/A   WCI  34
* GEYSER       N/A       34  32  92 NW8        N/A   WCI  27
* JUDITH GAP   N/A       33  33 100 NE6        N/A   WCI  27
* LOMA         N/A       47  26  44 NE4G12     N/A
$$

MTZ017>020-022>027-061-062-170100-
NORTHEAST MONTANA
CITY           SKY/WX    TMP DP  RH WIND       PRES   REMARKS
GLASGOW        MOCLDY    36  19  50 E12       30.14R WCI  28
GLENDIVE       CLOUDY    32  19  59 NE10      30.16R WCI  24
JORDAN         MOCLDY    37  21  52 E13       30.09R WCI  29
SIDNEY         CLOUDY    30  19  64 E10       30.21R WCI  21
WOLF POINT     CLOUDY    34  19  54 E8        30.19R WCI  27
* BEAVER HILL  N/A       29  21  72 E12        N/A   WCI  19
* CIRCLE       N/A       35  23  62 E9         N/A   WCI  28
* LINDSAY DVD  N/A       31  20  64 NE11       N/A   WCI  22
* NAVAJO       N/A       26  17  69 E8         N/A   WCI  18
* SACO         N/A       39  20  46 E11G16     N/A   WCI  32
$$

MTZ028>042-056>058-170100-
SOUTHCENTRAL AND SOUTHEAST MONTANA
CITY           SKY/WX    TMP DP  RH WIND       PRES   REMARKS
BAKER          CLOUDY    32  23  69 E14       30.11R WCI  22
BILLINGS       N/A       43  30  60 VRB5      30.01R
LIVINGSTON     PTCLDY    50  19  29 W10       29.94F
MILES CITY     CLOUDY    43  23  45 E7        30.07S
* LAUREL APT   CLOUDY    45  28  51 N13        N/A
* ROUNDUP APT  CLOUDY    41  27  58 NE6        N/A
* HYSHAM       N/A       42  24  49 NE6G11     N/A
* LAME DEER    N/A       39  26  60 N9G14      N/A   WCI  33
* REED POINT   N/A       44  31  60 E9         N/A
* ROSCOE HILL  N/A       38  22  53 E12        N/A   WCI  30
$$

REGIONAL REPORTS...DAKOTAS
CITY           SKY/WX    TMP DP  RH WIND       PRES   REMARKS
WILLISTON      CLEAR    N/A N/A N/A N/A       30.23R
DICKINSON      CLOUDY    28  19  69 E13       30.14R WCI  17
TIOGA          FOG       27  27 100 E12       30.25R WCI  16
WATFORD CITY   CLOUDY    28  18  66 E10       30.19R WCI  19
BISMARCK       CLOUDY    37  16  42 NE10      30.19R WCI  30
GRAND FORKS    CLEAR     37   9  31 NE20      30.18R WCI  27
FARGO          FAIR      37  23  57 NE10      30.15R WCI  30
BUFFALO SD     PTCLDY    34  21  59 E13G22    30.04R WCI  25
RAPID CITY     PTCLDY    41  27  58 E16       30.06R
$$

REGIONAL REPORTS...WYOMING/IDAHO/WASHINGTON
CITY           SKY/WX    TMP DP  RH WIND       PRES   REMARKS
GILLETTE       CLOUDY    39  30  70 CALM      30.02S
SHERIDAN       CLOUDY    37  34  89 S13       30.02S WCI  29
CODY           CLOUDY    45  19  35 SE9       29.96R
YELLOWSTONE LA MOCLDY    36   9  32 W9        30.00R WCI  29
SALMON         CLOUDY    54  18  24 NE6       29.93S
MULLAN PASS    FOG       30  28  92 SW5       29.96S WCI  25
SPOKANE        CLOUDY    50  39  66 SW12      29.98F
$$

REGIONAL REPORTS...ALBERTA
CITY           SKY/WX    TMP DP  RH WIND       PRES   REMARKS
CALGARY        LGT SNOW  30  27  89 S12       29.98R VSB 2 1/2 WCI  20

$$




USA.gov is the U.S. government's official web portal to all federal, state and local government web resources and services.